datetime,avg net radiation
2001-03-31,462.2
2001-04-01,421.6
2001-04-02,424.2
2001-04-03,498.6
2001-04-04,548.1
2001-04-05,112.6
2001-04-06,346.0
2001-04-07,306.0
2001-04-08,522.7
2001-04-09,244.0
2001-04-10,374.0
2001-04-11,407.9
2001-04-12,187.4
2001-04-13,385.3
2001-04-14,298.5
2001-04-15,290.3
2001-04-16,415.6
2001-04-17,117.0
2001-04-18,272.8
2001-04-19,396.9
2001-04-20,440.8
2001-04-21,431.5
2001-04-22,409.0
2001-04-23,481.1
2001-04-24,492.7
2001-04-25,513.6
2001-04-26,559.8
2001-04-27,250.0
2001-04-28,403.9
2001-04-29,440.1
2001-04-30,650.22
2001-05-01,560.8
2001-05-02,662.92
2001-05-03,642.42
2001-05-04,696.63
2001-05-05,702.33
2001-05-06,704.53
2001-05-07,641.82
2001-05-08,660.22
2001-05-09,713.13
2001-05-10,706.73
2001-05-11,444.68
2001-05-12,675.73
2001-05-13,303.66
2001-05-14,272.95
2001-05-15,690.93
2001-05-16,652.02
2001-05-17,715.13
2001-05-18,723.83
2001-05-19,722.13
2001-05-20,734.44
2001-05-21,736.54
2001-05-22,717.43
2001-05-23,713.13
2001-05-24,572.91
2001-05-25,636.72
2001-05-26,667.02
2001-05-27,685.23
2001-05-28,716.23
2001-05-29,727.44
2001-05-30,747.24
2001-05-31,633.02
2001-06-01,750.64
2001-06-02,737.24
2001-06-03,662.52
2001-06-04,453.28
2001-06-05,656.32
2001-06-06,759.04
2001-06-07,590.31
2001-06-08,730.34
2001-06-09,575.91
2001-06-10,412.38
2001-06-11,772.74
2001-06-12,766.34
2001-06-13,768.04
2001-06-14,764.04
2001-06-15,731.24
2001-06-16,761.94
2001-06-17,746.54
2001-06-18,750.14
2001-06-19,728.54
2001-06-20,738.04
2001-06-21,722.93
2001-06-22,718.93
2001-06-23,490.59
2001-06-24,301.66
2001-06-25,372.67
2001-06-26,523.5
2001-06-27,741.74
2001-06-28,758.54
2001-06-29,709.12
2001-06-30,694.22
2001-07-01,746.73
2001-07-02,424.47
2001-07-03,613.41
2001-07-04,680.32
2001-07-05,736.93
2001-07-06,590.7
2001-07-07,742.53
2001-07-08,562.3
2001-07-09,333.16
2001-07-10,527.59
2001-07-11,642.71
2001-07-12,713.92
2001-07-13,635.31
2001-07-14,681.62
2001-07-15,676.32
2001-07-16,692.32
2001-07-17,557.2
2001-07-18,560.5
2001-07-19,548.89
2001-07-20,633.11
2001-07-21,711.82
2001-07-22,708.32
2001-07-23,702.82
2001-07-24,693.02
2001-07-25,711.82
2001-07-26,693.52
2001-07-27,699.12
2001-07-28,495.89
2001-07-29,564.6
2001-07-30,657.91
2001-07-31,657.11
2001-08-01,690.02
2001-08-02,690.02
2001-08-03,582.5
2001-08-04,673.82
2001-08-05,683.42
2001-08-06,659.01
2001-08-07,569.5
2001-08-08,586.9
2001-08-09,652.31
2001-08-10,590.2
2001-08-11,555.2
2001-08-12,632.81
2001-08-13,656.11
2001-08-14,636.41
2001-08-15,620.71
2001-08-16,633.71
2001-08-17,627.21
2001-08-18,635.81
2001-08-19,575.1
2001-08-20,575.8
2001-08-21,479.68
2001-08-22,350.16
2001-08-23,602.4
2001-08-24,614.31
2001-08-25,608.71
2001-08-26,611.11
2001-08-27,595.7
2001-08-28,567.74
2001-08-29,543.64
2001-08-30,546.74
2001-08-31,551.44
2001-09-01,546.84
2001-09-02,552.04
2001-09-03,539.94
2001-09-04,529.53
2001-09-05,546.94
2001-09-06,548.04
2001-09-07,548.84
2001-09-08,509.53
2001-09-09,478.82
2001-09-10,250.56
2001-09-11,423.31
2001-09-12,196.15
2001-09-13,495.93
2001-09-14,339.39
2001-09-15,380.2
2001-09-16,484.92
2001-09-17,482.02
2001-09-18,496.83
2001-09-19,457.52
2001-09-20,466.52
2001-09-21,459.52
2001-09-22,351.49
2001-09-23,330.98
2001-09-24,175.64
2001-09-25,280.97
2001-09-26,377.2
2001-09-27,322.28
2001-09-28,445.41
2001-09-29,446.11
2001-09-30,433.71
2001-10-01,422.61
2001-10-02,426.31
2001-10-03,417.01
2001-10-04,390.7
2001-10-05,408.1
2001-10-06,288.87
2001-10-07,395.1
2001-10-08,400.3
2001-10-09,327.68
2001-10-10,326.18
2001-10-11,388.8
2001-10-12,381.6
2001-10-13,381.7
2001-10-14,295.37
2001-10-15,146.54
2001-10-16,350.99
2001-10-17,348.09
2001-10-18,335.98
2001-10-19,316.88
2001-10-20,302.18
2001-10-21,169.74
2001-10-22,314.08
2001-10-23,292.77
2001-10-24,332.78
2001-10-25,323.98
2001-10-26,159.24
2001-10-27,97.73
2001-10-28,79.23
2001-10-29,164.25
2001-10-30,230.38
2001-10-31,237.38
2001-11-01,223.87
2001-11-02,310.2
2001-11-03,299.9
2001-11-04,296.8
2001-11-05,183.26
2001-11-06,294.3
2001-11-07,290.3
2001-11-08,247.28
2001-11-09,214.47
2001-11-10,131.94
2001-11-11,49.92
2001-11-12,64.52
2001-11-13,163.15
2001-11-14,114.04
2001-11-15,66.52
2001-11-16,161.55
2001-11-17,149.05
2001-11-18,37.71
2001-11-19,56.42
2001-11-20,29.61
2001-11-21,198.67
2001-11-22,111.54
2001-11-23,65.82
2001-11-24,202.77
2001-11-25,171.06
2001-11-26,192.86
2001-11-27,106.13
2001-11-28,144.65
2001-11-29,196.56
2001-11-30,114.54
2001-12-01,97.23
2001-12-02,143.95
2001-12-03,128.24
2001-12-04,81.73
2001-12-05,214.67
2001-12-06,200.87
2001-12-07,127.04
2001-12-08,215.57
2001-12-09,188.16
2001-12-10,102.13
2001-12-11,109.34
2001-12-12,77.53
2001-12-13,160.65
2001-12-14,56.42
2001-12-15,119.84
2001-12-16,67.62
2001-12-17,78.83
2001-12-18,39.91
2001-12-19,50.62
2001-12-20,33.71
2001-12-21,103.73
2001-12-22,143.95
2001-12-23,155.55
2001-12-24,126.84
2001-12-25,71.62
2001-12-26,55.72
2001-12-27,80.83
2001-12-28,47.02
2001-12-29,64.52
2001-12-30,80.33
2001-12-31,18.5
2002-01-01,42.91
2002-01-02,48.91
2002-01-03,116.93
2002-01-04,57.71
2002-01-05,64.52
2002-01-06,121.83
2002-01-07,85.72
2002-01-08,187.64
2002-01-09,185.24
2002-01-10,145.63
2002-01-11,165.54
2002-01-12,167.14
2002-01-13,142.13
2002-01-14,219.65
2002-01-15,220.55
2002-01-16,216.15
2002-01-17,215.05
2002-01-18,208.75
2002-01-19,180.44
2002-01-20,85.42
2002-01-21,185.74
2002-01-22,168.74
2002-01-23,203.15
2002-01-24,115.03
2002-01-25,128.83
2002-01-26,260.26
2002-01-27,255.96
2002-01-28,265.66
2002-01-29,262.86
2002-01-30,199.85
2002-01-31,212.15
2002-02-01,275.57
2002-02-02,284.47
2002-02-03,290.57
2002-02-04,219.25
2002-02-05,239.56
2002-02-06,113.23
2002-02-07,271.16
2002-02-08,290.57
2002-02-09,290.57
2002-02-10,259.56
2002-02-11,324.78
2002-02-12,260.86
2002-02-13,327.58
2002-02-14,305.97
2002-02-15,152.24
2002-02-16,78.32
2002-02-17,196.35
2002-02-18,109.93
2002-02-19,170.34
2002-02-20,254.06
2002-02-21,272.06
2002-02-22,170.04
2002-02-23,382.29
2002-02-24,386.69
2002-02-25,360.69
2002-02-26,406.9
2002-02-27,395.39
2002-02-28,397.29
2002-03-01,414.09
2002-03-02,419.59
2002-03-03,417.39
2002-03-04,153.03
2002-03-05,208.84
2002-03-06,250.25
2002-03-07,440.79
2002-03-08,165.04
2002-03-09,265.86
2002-03-10,249.25
2002-03-11,313.27
2002-03-12,312.37
2002-03-13,373.38
2002-03-14,349.37
2002-03-15,287.66
2002-03-16,422.09
2002-03-17,449.4
2002-03-18,481.4
2002-03-19,424.69
2002-03-20,254.25
2002-03-21,357.38
2002-03-22,257.65
2002-03-23,363.38
2002-03-24,416.99
2002-03-25,495.31
2002-03-26,518.01
2002-03-27,511.81
2002-03-28,540.82
2002-03-29,541.92
2002-03-30,556.62
2002-03-31,549.22
2002-04-01,540.32
2002-04-02,558.72
2002-04-03,554.12
2002-04-04,472.8
2002-04-05,373.48
2002-04-06,556.32
2002-04-07,465.9
2002-04-08,348.97
2002-04-09,460.4
2002-04-10,317.57
2002-04-11,545.02
2002-04-12,356.68
2002-04-13,579.02
2002-04-14,402.49
2002-04-15,285.56
2002-04-16,354.98
2002-04-17,359.18
2002-04-18,541.22
2002-04-19,579.32
2002-04-20,567.42
2002-04-21,606.83
2002-04-22,638.74
2002-04-23,622.53
2002-04-24,613.93
2002-04-25,599.33
2002-04-26,276.86
2002-04-27,528.01
2002-04-28,140.03
2002-04-29,96.52
2002-04-30,414.89
2002-05-01,659.15
2002-05-02,663.75
2002-05-03,653.34
2002-05-04,608.03
2002-05-05,648.64
2002-05-06,699.85
2002-05-07,709.46
2002-05-08,589.13
2002-05-09,345.88
2002-05-10,706.06
2002-05-11,697.15
2002-05-12,501.61
2002-05-13,711.26
2002-05-14,658.05
2002-05-15,672.85
2002-05-16,610.84
2002-05-17,498.11
2002-05-18,191.04
2002-05-19,536.72
2002-05-20,562.12
2002-05-21,715.36
2002-05-22,766.47
2002-05-23,735.86
2002-05-24,541.62
2002-05-25,602.93
2002-05-26,408.79
2002-05-27,551.82
2002-05-28,674.55
2002-05-29,776.77
2002-05-30,643.84
2002-05-31,643.84
2002-06-01,766.47
2002-06-02,746.07
2002-06-03,756.27
2002-06-04,766.47
2002-06-05,741.96
2002-06-06,545.72
2002-06-07,481.81
2002-06-08,427.49
2002-06-09,658.75
2002-06-10,679.35
2002-06-11,553.02
2002-06-12,522.32
2002-06-13,751.47
2002-06-14,645.24
2002-06-15,568.83
2002-06-16,415.19
2002-06-17,584.43
2002-06-18,551.92
2002-06-19,406.29
2002-06-20,379.58
2002-06-21,420.19
2002-06-22,514.71
2002-06-23,615.24
2002-06-24,645.44
2002-06-25,602.43
2002-06-26,600.83
2002-06-27,430.1
2002-06-28,647.44
2002-06-29,653.95
2002-06-30,580.53
2002-07-01,540.62
2002-07-02,621.14
2002-07-03,600.73
2002-07-04,485.51
2002-07-05,615.94
2002-07-06,607.84
2002-07-07,723.56
2002-07-08,716.36
2002-07-09,731.26
2002-07-10,714.66
2002-07-11,609.04
2002-07-12,701.36
2002-07-13,727.76
2002-07-14,749.77
2002-07-15,749.37
2002-07-16,730.06
2002-07-17,499.21
2002-07-18,628.94
2002-07-19,662.95
2002-07-20,630.74
2002-07-21,396.69
2002-07-22,713.86
2002-07-23,701.86
2002-07-24,581.83
2002-07-25,683.65
2002-07-26,704.86
2002-07-27,686.45
2002-07-28,614.24
2002-07-29,578.63
2002-07-30,506.91
2002-07-31,640.54
2002-08-01,592.13
2002-08-02,527.62
2002-08-03,270.06
2002-08-04,640.24
2002-08-05,572.93
2002-08-06,681.15
2002-08-07,673.25
2002-08-08,676.65
2002-08-09,648.24
2002-08-10,619.64
2002-08-11,657.15
2002-08-12,662.65
2002-08-13,615.44
2002-08-14,608.74
2002-08-15,602.03
2002-08-16,544.92
2002-08-17,629.64
2002-08-18,554.62
2002-08-19,458.8
2002-08-20,633.94
2002-08-21,618.14
2002-08-22,423.19
2002-08-23,585.13
2002-08-24,578.43
2002-08-25,594.03
2002-08-26,566.63
2002-08-27,572.73
2002-08-28,481.2
2002-08-29,529.41
2002-08-30,564.82
2002-08-31,544.52
2002-09-01,528.11
2002-09-02,526.11
2002-09-03,418.29
2002-09-04,529.91
2002-09-05,452.2
2002-09-06,483.9
2002-09-07,488.51
2002-09-08,516.71
2002-09-09,514.41
2002-09-10,500.91
2002-09-11,500.41
2002-09-12,489.71
2002-09-13,372.78
2002-09-14,313.87
2002-09-15,423.39
2002-09-16,248.45
2002-09-17,478.7
2002-09-18,482.1
2002-09-19,480.6
2002-09-20,476.2
2002-09-21,472.1
2002-09-22,467.7
2002-09-23,463.3
2002-09-24,466.7
2002-09-25,419.69
2002-09-26,450.3
2002-09-27,443.7
2002-09-28,352.18
2002-09-29,401.29
2002-09-30,429.69
2002-10-01,431.69
2002-10-02,204.54
2002-10-03,374.78
2002-10-04,375.18
2002-10-05,411.39
2002-10-06,410.39
2002-10-07,409.59
2002-10-08,388.58
2002-10-09,364.08
2002-10-10,399.49
2002-10-11,393.29
2002-10-12,388.88
2002-10-13,372.28
2002-10-14,379.18
2002-10-15,369.78
2002-10-16,370.98
2002-10-17,327.37
2002-10-18,351.98
2002-10-19,333.97
2002-10-20,322.27
2002-10-21,333.47
2002-10-22,329.17
2002-10-23,290.36
2002-10-24,302.87
2002-10-25,276.66
2002-10-26,252.85
2002-10-27,252.48
2002-10-28,291.49
2002-10-29,311.7
2002-10-30,314.8
2002-10-31,311.1
2002-11-01,305.8
2002-11-02,259.18
2002-11-03,290.69
2002-11-04,281.89
2002-11-05,158.45
2002-11-06,138.44
2002-11-07,103.23
2002-11-08,91.13
2002-11-09,140.44
2002-11-10,148.75
2002-11-11,127.24
2002-11-12,101.43
2002-11-13,241.78
2002-11-14,177.66
2002-11-15,140.24
2002-11-16,226.17
2002-11-17,161.35
2002-11-18,228.37
2002-11-19,236.88
2002-11-20,176.96
2002-11-21,176.06
2002-11-22,225.67
2002-11-23,88.43
2002-11-24,248.18
2002-11-25,236.18
2002-11-26,223.57
2002-11-27,232.07
2002-11-28,183.36
2002-11-29,209.17
2002-11-30,149.25
2002-12-01,211.67
2002-12-02,211.07
2002-12-03,117.74
2002-12-04,175.56
2002-12-05,179.96
2002-12-06,207.97
2002-12-07,147.55
2002-12-08,83.03
2002-12-09,118.64
2002-12-10,50.12
2002-12-11,145.85
2002-12-12,53.32
2002-12-13,46.61
2002-12-14,87.43
2002-12-15,47.42
2002-12-16,102.93
2002-12-17,144.65
2002-12-18,101.73
2002-12-19,107.43
2002-12-20,145.85
2002-12-21,112.04
2002-12-22,210.77
2002-12-23,111.54
2002-12-24,181.86
2002-12-25,66.42
2002-12-26,59.72
2002-12-27,58.72
2002-12-28,116.04
2002-12-29,100.33
2002-12-30,122.44
2002-12-31,55.51
2003-01-01,111.93
2003-01-02,134.83
2003-01-03,149.44
2003-01-04,185.25
2003-01-05,208.55
2003-01-06,221.66
2003-01-07,208.25
2003-01-08,81.82
2003-01-09,78.22
2003-01-10,93.82
2003-01-11,84.62
2003-01-12,64.12
2003-01-13,44.31
2003-01-14,162.64
2003-01-15,132.83
2003-01-16,200.05
2003-01-17,228.16
2003-01-18,227.36
2003-01-19,220.76
2003-01-20,202.25
2003-01-21,86.82
2003-01-22,91.92
2003-01-23,71.52
2003-01-24,124.53
2003-01-25,122.83
2003-01-26,59.51
2003-01-27,173.44
2003-01-28,118.73
2003-01-29,90.32
2003-01-30,175.34
2003-01-31,84.42
2003-02-01,287.27
2003-02-02,267.77
2003-02-03,290.27
2003-02-04,293.97
2003-02-05,298.97
2003-02-06,305.38
2003-02-07,292.37
2003-02-08,302.48
2003-02-09,317.28
2003-02-10,242.96
2003-02-11,260.87
2003-02-12,89.22
2003-02-13,219.75
2003-02-14,128.73
2003-02-15,269.67
2003-02-16,310.48
2003-02-17,226.96
2003-02-18,132.63
2003-02-19,266.27
2003-02-20,313.28
2003-02-21,368.39
2003-02-22,328.48
2003-02-23,218.35
2003-02-24,384.9
2003-02-25,296.57
2003-02-26,169.14
2003-02-27,148.44
2003-02-28,368.79
2003-03-01,459.51
2003-03-02,347.88
2003-03-03,426.3
2003-03-04,419.5
2003-03-05,402.89
2003-03-06,359.48
2003-03-07,381.99
2003-03-08,139.43
2003-03-09,338.18
2003-03-10,190.04
2003-03-11,261.16
2003-03-12,247.76
2003-03-13,365.38
2003-03-14,238.45
2003-03-15,205.85
2003-03-16,436.0
2003-03-17,533.52
2003-03-18,338.78
2003-03-19,343.78
2003-03-20,251.36
2003-03-21,185.94
2003-03-22,489.41
2003-03-23,515.22
2003-03-24,172.04
2003-03-25,444.9
2003-03-26,450.2
2003-03-27,503.62
2003-03-28,439.6
2003-03-29,498.71
2003-03-30,332.78
2003-03-31,458.7
2003-04-01,278.96
2003-04-02,246.26
2003-04-03,282.66
2003-04-04,234.45
2003-04-05,281.36
2003-04-06,444.6
2003-04-07,347.88
2003-04-08,497.31
2003-04-09,352.68
2003-04-10,627.64
2003-04-11,192.14
2003-04-12,387.39
2003-04-13,324.17
2003-04-14,295.67
2003-04-15,223.75
2003-04-16,294.57
2003-04-17,476.61
2003-04-18,611.94
2003-04-19,476.11
2003-04-20,237.85
2003-04-21,343.88
2003-04-22,292.57
2003-04-23,318.37
2003-04-24,232.75
2003-04-25,448.8
2003-04-26,396.79
2003-04-27,400.89
2003-04-28,281.36
2003-04-29,478.21
2003-04-30,536.58
2003-05-01,320.05
2003-05-02,197.33
2003-05-03,375.95
2003-05-04,583.38
2003-05-05,331.85
2003-05-06,553.08
2003-05-07,351.95
2003-05-08,281.54
2003-05-09,402.16
2003-05-10,301.64
2003-05-11,522.88
2003-05-12,714.0
2003-05-13,724.01
2003-05-14,714.0
2003-05-15,744.21
2003-05-16,734.11
2003-05-17,736.01
2003-05-18,703.9
2003-05-19,703.9
2003-05-20,703.9
2003-05-21,724.01
2003-05-22,734.11
2003-05-23,502.77
2003-05-24,351.95
2003-05-25,703.9
2003-05-26,734.11
2003-05-27,623.49
2003-05-28,542.98
2003-05-29,653.59
2003-05-30,663.7
2003-05-31,724.01
2003-06-01,754.21
2003-06-02,754.21
2003-06-03,754.21
2003-06-04,764.31
2003-06-05,754.21
2003-06-06,724.01
2003-06-07,744.21
2003-06-08,734.11
2003-06-09,732.61
2003-06-10,688.9
2003-06-11,600.69
2003-06-12,642.89
2003-06-13,683.1
2003-06-14,712.4
2003-06-15,740.11
2003-06-16,561.18
2003-06-17,536.58
2003-06-18,578.68
2003-06-19,661.9
2003-06-20,590.69
2003-06-21,693.8
2003-06-22,569.58
2003-06-23,705.9
2003-06-24,658.8
2003-06-25,661.9
2003-06-26,715.3
2003-06-27,734.71
2003-06-28,647.69
2003-06-29,640.24
2003-06-30,667.75
2003-07-01,610.13
2003-07-02,708.26
2003-07-03,699.45
2003-07-04,709.86
2003-07-05,631.34
2003-07-06,644.54
2003-07-07,589.13
2003-07-08,611.34
2003-07-09,707.76
2003-07-10,702.96
2003-07-11,700.65
2003-07-12,712.66
2003-07-13,709.16
2003-07-14,698.35
2003-07-15,689.25
2003-07-16,714.76
2003-07-17,709.56
2003-07-18,650.64
2003-07-19,682.85
2003-07-20,678.35
2003-07-21,696.45
2003-07-22,512.11
2003-07-23,231.15
2003-07-24,585.23
2003-07-25,689.85
2003-07-26,695.55
2003-07-27,685.35
2003-07-28,698.15
2003-07-29,655.54
2003-07-30,675.05
2003-07-31,408.89
2003-08-01,257.66
2003-08-02,334.87
2003-08-03,572.03
2003-08-04,649.14
2003-08-05,651.04
2003-08-06,676.85
2003-08-07,663.95
2003-08-08,678.05
2003-08-09,678.05
2003-08-10,670.45
2003-08-11,665.45
2003-08-12,640.94
2003-08-13,611.13
2003-08-14,638.14
2003-08-15,631.94
2003-08-16,621.44
2003-08-17,618.64
2003-08-18,538.42
2003-08-19,608.63
2003-08-20,113.12
2003-08-21,222.45
2003-08-22,614.44
2003-08-23,621.24
2003-08-24,623.64
2003-08-25,294.77
2003-08-26,586.63
2003-08-27,594.13
2003-08-28,560.76
2003-08-29,564.36
2003-08-30,545.65
2003-08-31,548.05
2003-09-01,547.85
2003-09-02,430.62
2003-09-03,434.52
2003-09-04,491.24
2003-09-05,555.36
2003-09-06,303.19
2003-09-07,529.45
2003-09-08,253.47
2003-09-09,517.35
2003-09-10,511.04
2003-09-11,522.55
2003-09-12,526.75
2003-09-13,521.15
2003-09-14,487.64
2003-09-15,350.0
2003-09-16,504.14
2003-09-17,496.34
2003-09-18,473.73
2003-09-19,481.34
2003-09-20,478.83
2003-09-21,474.43
2003-09-22,469.43
2003-09-23,460.03
2003-09-24,475.53
2003-09-25,447.33
2003-09-26,444.12
2003-09-27,425.42
2003-09-28,434.52
2003-09-29,435.92
2003-09-30,382.01
2003-10-01,406.11
2003-10-02,358.0
2003-10-03,283.48
2003-10-04,393.81
2003-10-05,391.61
2003-10-06,393.41
2003-10-07,396.31
2003-10-08,312.19
2003-10-09,396.51
2003-10-10,204.46
2003-10-11,337.29
2003-10-12,371.4
2003-10-13,373.71
2003-10-14,180.75
2003-10-15,355.2
2003-10-16,367.9
2003-10-17,173.65
2003-10-18,329.39
2003-10-19,271.38
2003-10-20,345.8
2003-10-21,234.07
2003-10-22,344.8
2003-10-23,321.99
2003-10-24,323.09
2003-10-25,325.19
2003-10-26,306.19
2003-10-27,310.71
2003-10-28,323.51
2003-10-29,190.76
2003-10-30,209.37
2003-10-31,312.21
2003-11-01,94.83
2003-11-02,217.57
2003-11-03,205.67
2003-11-04,142.75
2003-11-05,123.84
2003-11-06,107.14
2003-11-07,71.42
2003-11-08,126.74
2003-11-09,111.94
2003-11-10,243.48
2003-11-11,263.89
2003-11-12,262.39
2003-11-13,132.04
2003-11-14,91.53
2003-11-15,59.82
2003-11-16,92.23
2003-11-17,239.18
2003-11-18,218.97
2003-11-19,250.38
2003-11-20,194.47
2003-11-21,246.28
2003-11-22,239.88
2003-11-23,143.85
2003-11-24,143.05
2003-11-25,154.25
2003-11-26,176.66
2003-11-27,84.93
2003-11-28,23.21
2003-11-29,57.92
2003-11-30,97.53
2003-12-01,107.84
2003-12-02,184.86
2003-12-03,61.72
2003-12-04,111.04
2003-12-05,67.42
2003-12-06,111.24
2003-12-07,196.67
2003-12-08,60.62
2003-12-09,73.92
2003-12-10,97.53
2003-12-11,56.62
2003-12-12,125.04
2003-12-13,162.96
2003-12-14,153.95
2003-12-15,112.04
2003-12-16,198.77
2003-12-17,194.87
2003-12-18,136.25
2003-12-19,71.02
2003-12-20,61.82
2003-12-21,138.45
2003-12-22,33.01
2003-12-23,72.12
2003-12-24,111.74
2003-12-25,191.86
2003-12-26,120.24
2003-12-27,87.83
2003-12-28,101.63
2003-12-29,133.75
2003-12-30,103.43
2003-12-31,133.94
2004-01-01,156.75
2004-01-02,214.87
2004-01-03,159.75
2004-01-04,145.85
2004-01-05,93.13
2004-01-06,184.96
2004-01-07,117.44
2004-01-08,168.05
2004-01-09,152.85
2004-01-10,190.06
2004-01-11,50.22
2004-01-12,198.06
2004-01-13,150.35
2004-01-14,80.53
2004-01-15,128.24
2004-01-16,116.34
2004-01-17,140.85
2004-01-18,90.53
2004-01-19,232.48
2004-01-20,239.98
2004-01-21,237.78
2004-01-22,149.85
2004-01-23,157.45
2004-01-24,204.67
2004-01-25,95.63
2004-01-26,147.55
2004-01-27,111.34
2004-01-28,171.26
2004-01-29,220.17
2004-01-30,234.28
2004-01-31,200.26
2004-02-01,98.73
2004-02-02,262.08
2004-02-03,247.28
2004-02-04,214.07
2004-02-05,157.15
2004-02-06,221.87
2004-02-07,319.6
2004-02-08,320.1
2004-02-09,324.1
2004-02-10,331.01
2004-02-11,342.51
2004-02-12,110.84
2004-02-13,230.17
2004-02-14,161.95
2004-02-15,71.92
2004-02-16,60.92
2004-02-17,269.49
2004-02-18,287.99
2004-02-19,206.37
2004-02-20,148.75
2004-02-21,174.76
2004-02-22,257.48
2004-02-23,250.48
2004-02-24,141.95
2004-02-25,203.07
2004-02-26,190.36
2004-02-27,317.1
2004-02-28,258.88
2004-02-29,268.96
2004-03-01,372.28
2004-03-02,124.93
2004-03-03,185.54
2004-03-04,196.14
2004-03-05,286.46
2004-03-06,381.78
2004-03-07,386.18
2004-03-08,350.57
2004-03-09,417.79
2004-03-10,298.76
2004-03-11,360.87
2004-03-12,356.17
2004-03-13,276.86
2004-03-14,393.38
2004-03-15,408.38
2004-03-16,329.17
2004-03-17,340.47
2004-03-18,408.28
2004-03-19,435.29
2004-03-20,452.29
2004-03-21,225.95
2004-03-22,335.87
2004-03-23,223.95
2004-03-24,132.33
2004-03-25,203.64
2004-03-26,437.59
2004-03-27,427.49
2004-03-28,427.49
2004-03-29,244.35
2004-03-30,284.96
2004-03-31,488.5
2004-04-01,508.9
2004-04-02,508.9
2004-04-03,457.99
2004-04-04,559.82
2004-04-05,488.5
2004-04-06,549.61
2004-04-07,588.72
2004-04-08,593.22
2004-04-09,611.23
2004-04-10,595.42
2004-04-11,459.69
2004-04-12,491.8
2004-04-13,389.28
2004-04-14,487.8
2004-04-15,394.68
2004-04-16,458.19
2004-04-17,254.35
2004-04-18,478.5
2004-04-19,227.45
2004-04-20,456.79
2004-04-21,662.84
2004-04-22,499.2
2004-04-23,661.44
2004-04-24,666.34
2004-04-25,687.84
2004-04-26,654.13
2004-04-27,672.44
2004-04-28,703.34
2004-04-29,713.09
2004-04-30,636.28
2004-05-01,689.79
2004-05-02,696.69
2004-05-03,700.39
2004-05-04,672.38
2004-05-05,147.62
2004-05-06,697.69
2004-05-07,458.36
2004-05-08,307.64
2004-05-09,378.75
2004-05-10,435.75
2004-05-11,671.88
2004-05-12,589.77
2004-05-13,619.38
2004-05-14,450.86
2004-05-15,684.29
2004-05-16,322.14
2004-05-17,301.84
2004-05-18,601.98
2004-05-19,403.65
2004-05-20,608.48
2004-05-21,419.55
2004-05-22,721.79
2004-05-23,609.88
2004-05-24,638.58
2004-05-25,482.96
2004-05-26,153.32
2004-05-27,435.75
2004-05-28,627.58
2004-05-29,614.28
2004-05-30,609.58
2004-05-31,616.18
2004-06-01,621.38
2004-06-02,537.67
2004-06-03,638.98
2004-06-04,645.48
2004-06-05,639.68
2004-06-06,414.45
2004-06-07,655.18
2004-06-08,264.73
2004-06-09,590.57
2004-06-10,699.89
2004-06-11,555.27
2004-06-12,749.79
2004-06-13,715.59
2004-06-14,727.89
2004-06-15,786.3
2004-06-16,777.6
2004-06-17,700.49
2004-06-18,718.69
2004-06-19,733.99
2004-06-20,682.29
2004-06-21,738.19
2004-06-22,721.79
2004-06-23,570.67
2004-06-24,746.19
2004-06-25,747.39
2004-06-26,739.99
2004-06-27,590.27
2004-06-28,503.6
2004-06-29,684.93
2004-06-30,674.63
2004-07-01,685.73
2004-07-02,615.42
2004-07-03,731.74
2004-07-04,734.24
2004-07-05,723.54
2004-07-06,738.84
2004-07-07,713.54
2004-07-08,637.82
2004-07-09,701.33
2004-07-10,716.24
2004-07-11,752.34
2004-07-12,749.54
2004-07-13,756.65
2004-07-14,744.04
2004-07-15,732.44
2004-07-16,640.92
2004-07-17,506.1
2004-07-18,573.31
2004-07-19,694.13
2004-07-20,713.24
2004-07-21,711.94
2004-07-22,711.64
2004-07-23,525.2
2004-07-24,563.91
2004-07-25,694.13
2004-07-26,702.84
2004-07-27,682.33
2004-07-28,671.23
2004-07-29,643.32
2004-07-30,685.83
2004-07-31,700.73
2004-08-01,692.33
2004-08-02,671.03
2004-08-03,639.12
2004-08-04,545.0
2004-08-05,667.43
2004-08-06,688.03
2004-08-07,678.33
2004-08-08,669.83
2004-08-09,655.93
2004-08-10,641.22
2004-08-11,618.02
2004-08-12,638.32
2004-08-13,474.59
2004-08-14,526.8
2004-08-15,588.31
2004-08-16,591.31
2004-08-17,598.52
2004-08-18,617.12
2004-08-19,621.42
2004-08-20,560.41
2004-08-21,237.55
2004-08-22,378.17
2004-08-23,469.19
2004-08-24,466.79
2004-08-25,474.39
2004-08-26,605.22
2004-08-27,587.97
2004-08-28,581.16
2004-08-29,570.96
2004-08-30,533.25
2004-08-31,548.35
2004-09-01,565.06
2004-09-02,556.16
2004-09-03,555.46
2004-09-04,554.96
2004-09-05,545.55
2004-09-06,539.95
2004-09-07,536.15
2004-09-08,521.85
2004-09-09,516.85
2004-09-10,408.11
2004-09-11,354.9
2004-09-12,328.79
2004-09-13,513.34
2004-09-14,407.41
2004-09-15,500.64
2004-09-16,276.78
2004-09-17,335.29
2004-09-18,279.68
2004-09-19,418.02
2004-09-20,480.54
2004-09-21,465.63
2004-09-22,461.13
2004-09-23,464.33
2004-09-24,472.13
2004-09-25,457.13
2004-09-26,456.43
2004-09-27,414.92
2004-09-28,396.31
2004-09-29,438.22
2004-09-30,431.42
2004-10-01,422.92
2004-10-02,407.61
2004-10-03,380.51
2004-10-04,402.61
2004-10-05,388.01
2004-10-06,399.91
2004-10-07,333.79
2004-10-08,407.11
2004-10-09,383.51
2004-10-10,379.81
2004-10-11,348.4
2004-10-12,357.9
2004-10-13,371.8
2004-10-14,337.7
2004-10-15,322.29
2004-10-16,122.63
2004-10-17,166.15
2004-10-18,84.12
2004-10-19,300.68
2004-10-20,209.76
2004-10-21,68.82
2004-10-22,157.74
2004-10-23,323.99
2004-10-24,277.68
2004-10-25,131.94
2004-10-26,137.14
2004-10-27,208.06
2004-10-28,218.96
2004-10-29,167.95
2004-10-30,289.58
2004-10-31,236.87
2004-11-01,207.76
2004-11-02,104.03
2004-11-03,292.38
2004-11-04,281.38
2004-11-05,283.38
2004-11-06,280.28
2004-11-07,270.17
2004-11-08,116.63
2004-11-09,106.03
2004-11-10,119.83
2004-11-11,238.27
2004-11-12,222.76
2004-11-13,208.86
2004-11-14,130.84
2004-11-15,147.24
2004-11-16,170.65
2004-11-17,124.13
2004-11-18,249.97
2004-11-19,239.47
2004-11-20,238.27
2004-11-21,196.45
2004-11-22,217.46
2004-11-23,199.16
2004-11-24,52.01
2004-11-25,92.13
2004-11-26,212.86
2004-11-27,230.46
2004-11-28,210.76
2004-11-29,191.85
2004-11-30,159.14
2004-12-01,211.46
2004-12-02,213.06
2004-12-03,112.03